QPF
0.02 0.01 0.01 0.00 0.00 0.00 0.00 0.00 0.00 0.00 0.01 0.01 0.01 0.00 0.01 0.01 0.01 0.01 0.01 0.00 0.01 0.03 0.05 0.06 0.08 0.11 0.09 0.06 0.03 0.02 0.02 0.01 0.01 0.01 0.01 0.01 0.01 0.01 0.01 0.01 0.01 0.01 0.01 0.01
0.01 0.01 0.00 0.00 0.00 0.00 0.00 0.00 0.00 0.00 0.01 0.01 0.01 0.01 0.01 0.01 0.01 0.01 0.01 0.01 0.01 0.03 0.07 0.10 0.10 0.11 0.12 0.07 0.04 0.03 0.03 0.02 0.02 0.01 0.01 0.01 0.01 0.01 0.01 0.01 0.01 0.01 0.01 0.00
0.01 0.01 0.01 0.00 0.00 0.00 0.00 0.00 0.00 0.00 0.01 0.01 0.01 0.01 0.01 0.01 0.01 0.01 0.01 0.00 0.00 0.02 0.03 0.08 0.11 0.10 0.12 0.09 0.05 0.03 0.03 0.02 0.02 0.01 0.01 0.00 0.00 0.00 0.00 0.00 0.01 0.01 0.01 0.01
0.01 0.01 0.01 0.01 0.01 0.00 0.00 0.00 0.00 0.00 0.01 0.01 0.01 0.01 0.00 0.00 0.01 0.00 0.00 0.00 0.00 0.01 0.02 0.03 0.05 0.08 0.10 0.09 0.05 0.03 0.03 0.03 0.02 0.02 0.02 0.00 0.00 0.00 0.00 0.00 0.00 0.01 0.01 0.01
0.01 0.02 0.02 0.02 0.01 0.01 0.01 0.00 0.00 0.01 0.01 0.01 0.01 0.01 0.01 0.00 0.00 0.00 0.00 0.00 0.00 0.00 0.01 0.02 0.02 0.03 0.04 0.07 0.07 0.04 0.03 0.03 0.03 0.03 0.04 0.03 0.01 0.01 0.01 0.01 0.01 0.01 0.00 0.01
0.00 0.01 0.02 0.01 0.01 0.01 0.00 0.00 0.00 0.01 0.01 0.01 0.00 0.01 0.00 0.00 0.00 0.00 0.00 0.00 0.00 0.00 0.00 0.01 0.02 0.02 0.02 0.03 0.04 0.03 0.02 0.03 0.04 0.03 0.04 0.05 0.03 0.02 0.02 0.01 0.01 0.00 0.00 0.00
0.00 0.00 0.01 0.01 0.01 0.01 0.00 0.01 0.01 0.01 0.01 0.01 0.00 0.00 0.00 0.00 0.00 0.00 0.00 0.00 0.00 0.00 0.00 0.01 0.02 0.02 0.02 0.01 0.01 0.02 0.02 0.02 0.04 0.04 0.05 0.04 0.05 0.03 0.02 0.02 0.01 0.01 0.01 0.00
0.00 0.00 0.01 0.01 0.01 0.00 0.00 0.00 0.01 0.01 0.01 0.00 0.00 0.00 0.00 0.00 0.00 0.01 0.00 0.00 0.00 0.00 0.00 0.00 0.01 0.01 0.02 0.02 0.03 0.02 0.02 0.02 0.04 0.04 0.05 0.05 0.07 0.06 0.04 0.03 0.02 0.01 0.01 0.01
0.00 0.00 0.00 0.01 0.01 0.01 0.00 0.00 0.00 0.01 0.01 0.01 0.00 0.00 0.00 0.00 0.00 0.01 0.01 0.00 0.00 0.00 0.00 0.00 0.00 0.01 0.01 0.02 0.03 0.03 0.03 0.03 0.04 0.04 0.03 0.02 0.04 0.07 0.05 0.03 0.02 0.02 0.02 0.02
0.01 0.01 0.01 0.01 0.01 0.01 0.01 0.01 0.01 0.01 0.01 0.01 0.00 0.00 0.00 0.00 0.00 0.00 0.00 0.00 0.00 0.01 0.01 0.00 0.01 0.01 0.02 0.02 0.03 0.03 0.02 0.03 0.04 0.04 0.03 0.03 0.04 0.05 0.04 0.03 0.01 0.01 0.02 0.01
0.01 0.01 0.01 0.01 0.01 0.01 0.01 0.01 0.01 0.02 0.02 0.02 0.01 0.00 0.01 0.01 0.00 0.00 0.00 0.00 0.00 0.01 0.01 0.01 0.01 0.02 0.02 0.01 0.02 0.03 0.03 0.03 0.03 0.03 0.03 0.03 0.03 0.04 0.04 0.03 0.02 0.02 0.02 0.02
0.00 0.01 0.01 0.00 0.00 0.00 0.01 0.01 0.01 0.03 0.03 0.02 0.01 0.01 0.01 0.01 0.01 0.00 0.00 0.01 0.00 0.00 0.01 0.01 0.01 0.02 0.02 0.02 0.02 0.02 0.03 0.03 0.02 0.03 0.04 0.03 0.03 0.05 0.04 0.03 0.03 0.02 0.02 0.02
0.01 0.01 0.02 0.01 0.00 0.00 0.00 0.01 0.01 0.02 0.02 0.02 0.01 0.01 0.01 0.00 0.00 0.00 0.00 0.00 0.01 0.01 0.01 0.01 0.01 0.02 0.03 0.04 0.03 0.02 0.02 0.02 0.03 0.02 0.03 0.03 0.03 0.05 0.06 0.03 0.03 0.02 0.01 0.02
0.01 0.01 0.01 0.01 0.00 0.00 0.00 0.00 0.01 0.01 0.02 0.01 0.01 0.01 0.01 0.01 0.01 0.01 0.01 0.01 0.01 0.01 0.01 0.02 0.02 0.03 0.03 0.03 0.03 0.02 0.02 0.02 0.02 0.02 0.03 0.03 0.03 0.03 0.04 0.05 0.04 0.04 0.04 0.04
0.01 0.00 0.00 0.00 0.00 0.00 0.00 0.00 0.00 0.00 0.01 0.01 0.01 0.01 0.01 0.01 0.02 0.03 0.02 0.02 0.01 0.01 0.02 0.02 0.02 0.02 0.02 0.03 0.03 0.03 0.03 0.03 0.02 0.01 0.01 0.03 0.04 0.03 0.03 0.03 0.04 0.05 0.05 0.05
0.01 0.00 0.00 0.00 0.00 0.00 0.00 0.00 0.00 0.00 0.00 0.00 0.01 0.01 0.01 0.01 0.01 0.02 0.03 0.02 0.02 0.03 0.04 0.04 0.04 0.02 0.02 0.02 0.03 0.03 0.03 0.03 0.03 0.02 0.01 0.02 0.03 0.03 0.02 0.02 0.02 0.03 0.04 0.04
0.01 0.00 0.00 0.00 0.00 0.00 0.00 0.00 0.00 0.00 0.00 0.00 0.00 0.01 0.01 0.00 0.00 0.01 0.02 0.03 0.03 0.04 0.05 0.05 0.04 0.02 0.01 0.02 0.02 0.02 0.03 0.02 0.02 0.03 0.02 0.02 0.02 0.02 0.02 0.02 0.02 0.03 0.03 0.04
0.01 0.01 0.01 0.01 0.01 0.01 0.00 0.00 0.00 0.01 0.01 0.01 0.01 0.00 0.00 0.00 0.00 0.01 0.01 0.01 0.01 0.02 0.03 0.06 0.06 0.04 0.02 0.02 0.03 0.03 0.03 0.02 0.02 0.03 0.02 0.02 0.01 0.01 0.01 0.01 0.02 0.03 0.03 0.03
0.01 0.01 0.01 0.01 0.01 0.01 0.00 0.00 0.01 0.01 0.02 0.02 0.01 0.01 0.00 0.00 0.00 0.00 0.01 0.00 0.00 0.00 0.01 0.02 0.04 0.04 0.04 0.03 0.04 0.04 0.03 0.03 0.03 0.03 0.03 0.03 0.02 0.03 0.03 0.02 0.02 0.02 0.02 0.02
0.00 0.01 0.01 0.01 0.01 0.01 0.00 0.00 0.01 0.01 0.02 0.02 0.01 0.01 0.01 0.01 0.00 0.01 0.01 0.00 0.00 0.00 0.00 0.00 0.01 0.01 0.02 0.02 0.03 0.03 0.03 0.03 0.03 0.04 0.03 0.03 0.02 0.03 0.03 0.02 0.02 0.02 0.02 0.03
0.01 0.00 0.01 0.01 0.01 0.00 0.00 0.00 0.01 0.02 0.02 0.02 0.02 0.02 0.02 0.01 0.01 0.01 0.00 0.00 0.00 0.00 0.01 0.01 0.01 0.01 0.02 0.02 0.02 0.02 0.03 0.03 0.03 0.04 0.05 0.03 0.02 0.02 0.02 0.02 0.02 0.03 0.03 0.03
0.03 0.02 0.01 0.02 0.02 0.01 0.00 0.01 0.02 0.02 0.02 0.02 0.02 0.02 0.01 0.01 0.01 0.00 0.00 0.00 0.00 0.00 0.00 0.01 0.01 0.02 0.03 0.02 0.01 0.01 0.02 0.02 0.02 0.03 0.03 0.03 0.02 0.02 0.02 0.02 0.02 0.03 0.03 0.03
0.04 0.04 0.03 0.02 0.02 0.01 0.00 0.01 0.01 0.02 0.03 0.03 0.03 0.03 0.02 0.01 0.00 0.00 0.00 0.00 0.01 0.01 0.01 0.01 0.02 0.02 0.02 0.02 0.02 0.02 0.01 0.01 0.01 0.02 0.03 0.02 0.02 0.02 0.02 0.02 0.02 0.02 0.02 0.03
0.03 0.04 0.05 0.03 0.02 0.01 0.01 0.01 0.01 0.02 0.03 0.04 0.04 0.03 0.02 0.02 0.01 0.01 0.01 0.01 0.02 0.02 0.02 0.02 0.02 0.02 0.02 0.02 0.02 0.02 0.02 0.01 0.01 0.02 0.02 0.02 0.02 0.02 0.02 0.02 0.02 0.02 0.02 0.02
0.01 0.02 0.03 0.02 0.01 0.01 0.00 0.00 0.01 0.02 0.03 0.04 0.04 0.03 0.02 0.02 0.01 0.02 0.02 0.02 0.02 0.02 0.03 0.02 0.02 0.02 0.02 0.02 0.02 0.02 0.02 0.01 0.01 0.02 0.02 0.02 0.02 0.02 0.03 0.02 0.02 0.01 0.01 0.01
0.01 0.01 0.02 0.01 0.00 0.00 0.01 0.01 0.01 0.02 0.03 0.03 0.04 0.04 0.02 0.01 0.01 0.01 0.02 0.02 0.02 0.02 0.02 0.03 0.02 0.02 0.02 0.02 0.02 0.02 0.02 0.02 0.02 0.02 0.02 0.02 0.02 0.02 0.03 0.03 0.03 0.02 0.01 0.01
MSLP
1014.64 1015.57 1016.38 1017.03 1017.53 1017.90 1018.18 1018.42 1018.66 1018.91 1019.17 1019.44 1019.70 1019.92 1020.10 1020.23 1020.31 1020.35 1020.36 1020.36 1020.36 1020.34 1020.31 1020.26 1020.18 1020.07 1019.94 1019.78 1019.63 1019.49 1019.37 1019.30 1019.25 1019.24 1019.26 1019.27 1019.28 1019.28 1019.24 1019.18 1019.10 1019.00 1018.91 1018.82
1015.30 1016.15 1016.85 1017.41 1017.83 1018.16 1018.44 1018.71 1018.99 1019.29 1019.61 1019.90 1020.16 1020.36 1020.49 1020.55 1020.57 1020.57 1020.56 1020.56 1020.58 1020.59 1020.59 1020.56 1020.47 1020.34 1020.15 1019.94 1019.74 1019.56 1019.43 1019.38 1019.39 1019.47 1019.58 1019.69 1019.79 1019.84 1019.84 1019.78 1019.67 1019.53 1019.38 1019.24
1015.86 1016.58 1017.16 1017.61 1017.96 1018.25 1018.54 1018.84 1019.18 1019.54 1019.89 1020.20 1020.44 1020.60 1020.66 1020.65 1020.60 1020.55 1020.53 1020.54 1020.59 1020.65 1020.71 1020.72 1020.66 1020.53 1020.34 1020.11 1019.87 1019.68 1019.56 1019.53 1019.60 1019.75 1019.94 1020.14 1020.31 1020.42 1020.44 1020.39 1020.26 1020.09 1019.90 1019.72
1016.32 1016.90 1017.35 1017.69 1017.98 1018.25 1018.56 1018.91 1019.31 1019.72 1020.10 1020.41 1020.62 1020.70 1020.68 1020.58 1020.46 1020.35 1020.31 1020.33 1020.42 1020.55 1020.68 1020.76 1020.77 1020.68 1020.51 1020.28 1020.05 1019.86 1019.75 1019.75 1019.86 1020.06 1020.31 1020.57 1020.80 1020.94 1020.99 1020.95 1020.82 1020.64 1020.43 1020.22
1016.73 1017.15 1017.47 1017.72 1017.96 1018.24 1018.58 1018.99 1019.45 1019.91 1020.31 1020.61 1020.76 1020.76 1020.63 1020.43 1020.22 1020.05 1019.97 1020.00 1020.14 1020.34 1020.55 1020.72 1020.80 1020.78 1020.66 1020.47 1020.26 1020.08 1019.99 1020.00 1020.13 1020.36 1020.64 1020.94 1021.20 1021.37 1021.45 1021.42 1021.31 1021.13 1020.93 1020.73
1017.11 1017.38 1017.58 1017.76 1017.98 1018.27 1018.66 1019.14 1019.66 1020.16 1020.57 1020.83 1020.92 1020.82 1020.58 1020.27 1019.95 1019.72 1019.60 1019.64 1019.81 1020.07 1020.37 1020.63 1020.81 1020.87 1020.81 1020.67 1020.49 1020.32 1020.23 1020.25 1020.38 1020.61 1020.90 1021.21 1021.48 1021.68 1021.79 1021.79 1021.70 1021.56 1021.39 1021.22
1017.47 1017.61 1017.71 1017.84 1018.06 1018.38 1018.83 1019.37 1019.95 1020.47 1020.88 1021.09 1021.10 1020.91 1020.56 1020.14 1019.73 1019.42 1019.27 1019.31 1019.51 1019.83 1020.20 1020.55 1020.81 1020.95 1020.95 1020.86 1020.71 1020.56 1020.47 1020.48 1020.59 1020.81 1021.09 1021.39 1021.67 1021.89 1022.02 1022.06 1022.02 1021.93 1021.81 1021.69
1017.81 1017.84 1017.87 1017.98 1018.20 1018.57 1019.06 1019.66 1020.26 1020.80 1021.18 1021.35 1021.29 1021.00 1020.56 1020.05 1019.57 1019.21 1019.03 1019.06 1019.28 1019.65 1020.08 1020.49 1020.83 1021.03 1021.10 1021.05 1020.93 1020.79 1020.70 1020.69 1020.78 1020.97 1021.23 1021.53 1021.81 1022.04 1022.20 1022.29 1022.30 1022.27 1022.21 1022.16
1018.07 1018.03 1018.03 1018.13 1018.37 1018.76 1019.30 1019.92 1020.54 1021.07 1021.42 1021.54 1021.41 1021.06 1020.56 1019.99 1019.47 1019.08 1018.90 1018.93 1019.18 1019.57 1020.04 1020.51 1020.89 1021.14 1021.25 1021.24 1021.14 1021.02 1020.93 1020.91 1020.98 1021.15 1021.40 1021.68 1021.97 1022.22 1022.41 1022.54 1022.61 1022.63 1022.64 1022.65
1018.22 1018.15 1018.14 1018.24 1018.50 1018.92 1019.47 1020.09 1020.70 1021.19 1021.50 1021.58 1021.41 1021.03 1020.50 1019.93 1019.41 1019.04 1018.88 1018.94 1019.20 1019.62 1020.11 1020.60 1021.01 1021.29 1021.43 1021.45 1021.38 1021.28 1021.19 1021.18 1021.25 1021.41 1021.65 1021.93 1022.23 1022.49 1022.71 1022.88 1023.00 1023.07 1023.13 1023.19
1018.25 1018.18 1018.18 1018.30 1018.57 1019.00 1019.53 1020.13 1020.68 1021.13 1021.40 1021.44 1021.25 1020.88 1020.38 1019.85 1019.39 1019.08 1018.97 1019.07 1019.36 1019.79 1020.29 1020.78 1021.19 1021.48 1021.65 1021.69 1021.65 1021.58 1021.53 1021.54 1021.63 1021.80 1022.05 1022.34 1022.64 1022.93 1023.17 1023.37 1023.52 1023.63 1023.72 1023.81
1018.17 1018.13 1018.16 1018.31 1018.59 1018.99 1019.49 1020.02 1020.51 1020.89 1021.10 1021.11 1020.94 1020.60 1020.18 1019.75 1019.39 1019.17 1019.14 1019.30 1019.62 1020.06 1020.56 1021.03 1021.43 1021.72 1021.90 1021.97 1021.97 1021.95 1021.94 1022.00 1022.13 1022.33 1022.60 1022.91 1023.23 1023.53 1023.79 1024.01 1024.17 1024.30 1024.41 1024.51
1018.06 1018.07 1018.15 1018.32 1018.59 1018.96 1019.38 1019.82 1020.22 1020.52 1020.67 1020.67 1020.52 1020.26 1019.94 1019.63 1019.41 1019.31 1019.37 1019.60 1019.95 1020.39 1020.87 1021.31 1021.69 1021.98 1022.16 1022.26 1022.32 1022.35 1022.42 1022.54 1022.72 1022.98 1023.29 1023.62 1023.96 1024.27 1024.54 1024.76 1024.94 1025.07 1025.18 1025.27
1018.02 1018.10 1018.22 1018.40 1018.65 1018.96 1019.29 1019.62 1019.90 1020.10 1020.20 1020.18 1020.06 1019.88 1019.69 1019.52 1019.44 1019.47 1019.63 1019.92 1020.29 1020.73 1021.17 1021.58 1021.93 1022.20 1022.40 1022.54 1022.65 1022.77 1022.91 1023.11 1023.37 1023.68 1024.03 1024.40 1024.75 1025.08 1025.36 1025.58 1025.75 1025.89 1025.99 1026.09
1018.16 1018.30 1018.46 1018.64 1018.84 1019.06 1019.28 1019.48 1019.64 1019.73 1019.76 1019.72 1019.64 1019.54 1019.46 1019.43 1019.48 1019.63 1019.88 1020.20 1020.59 1021.00 1021.40 1021.77 1022.09 1022.35 1022.56 1022.75 1022.93 1023.13 1023.37 1023.65 1023.99 1024.37 1024.76 1025.16 1025.54 1025.87 1026.16 1026.39 1026.57 1026.71 1026.82 1026.91
1018.55 1018.73 1018.90 1019.06 1019.20 1019.32 1019.41 1019.47 1019.49 1019.47 1019.42 1019.36 1019.30 1019.26 1019.27 1019.35 1019.51 1019.75 1020.05 1020.40 1020.78 1021.15 1021.51 1021.83 1022.12 1022.37 1022.61 1022.85 1023.10 1023.39 1023.73 1024.11 1024.52 1024.96 1025.41 1025.84 1026.23 1026.59 1026.89 1027.13 1027.33 1027.49 1027.62 1027.73
1019.20 1019.40 1019.56 1019.66 1019.72 1019.72 1019.67 1019.58 1019.46 1019.32 1019.19 1019.09 1019.03 1019.03 1019.11 1019.27 1019.49 1019.78 1020.11 1020.46 1020.80 1021.14 1021.44 1021.72 1021.99 1022.24 1022.51 1022.81 1023.14 1023.52 1023.95 1024.42 1024.92 1025.42 1025.91 1026.38 1026.80 1027.18 1027.51 1027.78 1028.01 1028.21 1028.38 1028.53
1020.05 1020.23 1020.34 1020.37 1020.32 1020.19 1020.00 1019.76 1019.50 1019.25 1019.04 1018.88 1018.81 1018.83 1018.94 1019.13 1019.39 1019.69 1020.02 1020.34 1020.65 1020.93 1021.19 1021.44 1021.69 1021.96 1022.27 1022.63 1023.05 1023.52 1024.05 1024.60 1025.17 1025.73 1026.27 1026.77 1027.23 1027.65 1028.01 1028.33 1028.62 1028.87 1029.10 1029.31
1020.98 1021.11 1021.14 1021.07 1020.89 1020.63 1020.30 1019.92 1019.54 1019.19 1018.90 1018.70 1018.60 1018.61 1018.73 1018.93 1019.19 1019.48 1019.78 1020.06 1020.33 1020.56 1020.79 1021.01 1021.27 1021.56 1021.92 1022.36 1022.86 1023.42 1024.03 1024.67 1025.30 1025.92 1026.51 1027.05 1027.55 1028.01 1028.43 1028.81 1029.17 1029.49 1029.79 1030.06
1021.83 1021.87 1021.80 1021.62 1021.32 1020.93 1020.47 1019.98 1019.50 1019.07 1018.72 1018.47 1018.35 1018.35 1018.45 1018.64 1018.89 1019.15 1019.42 1019.67 1019.89 1020.10 1020.30 1020.53 1020.80 1021.13 1021.55 1022.05 1022.63 1023.28 1023.96 1024.67 1025.36 1026.03 1026.67 1027.26 1027.80 1028.31 1028.79 1029.24 1029.67 1030.07 1030.45 1030.78
1022.47 1022.41 1022.23 1021.92 1021.51 1021.01 1020.46 1019.88 1019.33 1018.85 1018.46 1018.19 1018.05 1018.03 1018.13 1018.30 1018.53 1018.77 1019.01 1019.23 1019.43 1019.62 1019.83 1020.07 1020.37 1020.75 1021.22 1021.78 1022.43 1023.14 1023.89 1024.65 1025.40 1026.11 1026.79 1027.42 1028.02 1028.58 1029.12 1029.64 1030.14 1030.61 1031.06 1031.46
1022.81 1022.64 1022.35 1021.94 1021.44 1020.86 1020.24 1019.62 1019.03 1018.53 1018.13 1017.86 1017.72 1017.70 1017.79 1017.96 1018.17 1018.40 1018.63 1018.84 1019.04 1019.24 1019.46 1019.72 1020.06 1020.48 1021.00 1021.61 1022.31 1023.07 1023.86 1024.65 1025.44 1026.19 1026.90 1027.58 1028.22 1028.83 1029.43 1030.01 1030.56 1031.10 1031.59 1032.04
1022.85 1022.57 1022.19 1021.70 1021.13 1020.51 1019.87 1019.23 1018.66 1018.16 1017.78 1017.52 1017.40 1017.40 1017.50 1017.67 1017.89 1018.12 1018.35 1018.57 1018.79 1019.01 1019.25 1019.55 1019.92 1020.38 1020.93 1021.57 1022.29 1023.07 1023.88 1024.69 1025.49 1026.26 1027.00 1027.71 1028.39 1029.05 1029.69 1030.32 1030.92 1031.50 1032.03 1032.51
1022.62 1022.27 1021.82 1021.28 1020.69 1020.06 1019.43 1018.82 1018.28 1017.82 1017.48 1017.26 1017.16 1017.18 1017.30 1017.49 1017.72 1017.97 1018.22 1018.47 1018.72 1018.97 1019.25 1019.58 1019.98 1020.45 1021.02 1021.66 1022.38 1023.14 1023.94 1024.74 1025.54 1026.32 1027.08 1027.81 1028.53 1029.22 1029.90 1030.56 1031.19 1031.79 1032.35 1032.84
1022.24 1021.84 1021.36 1020.81 1020.23 1019.63 1019.04 1018.48 1017.99 1017.58 1017.29 1017.11 1017.04 1017.09 1017.23 1017.44 1017.69 1017.97 1018.25 1018.53 1018.82 1019.11 1019.43 1019.78 1020.20 1020.67 1021.23 1021.85 1022.53 1023.26 1024.02 1024.80 1025.58 1026.35 1027.11 1027.86 1028.60 1029.32 1030.02 1030.71 1031.36 1031.97 1032.53 1033.03
1021.83 1021.41 1020.93 1020.42 1019.87 1019.33 1018.79 1018.30 1017.87 1017.51 1017.26 1017.11 1017.07 1017.13 1017.28 1017.50 1017.77 1018.07 1018.39 1018.71 1019.03 1019.37 1019.71 1020.09 1020.50 1020.97 1021.49 1022.07 1022.70 1023.37 1024.08 1024.82 1025.57 1026.33 1027.09 1027.85 1028.60 1029.34 1030.07 1030.77 1031.43 1032.05 1032.61 1033.11
Thickness
5719 5706 5698 5702 5704 5704 5700 5696 5693 5700 5711 5706 5701 5702 5708 5713 5712 5712 5713 5714 5715 5719 5725 5727 5728 5728 5727 5726 5724 5723 5721 5721 5720 5719 5717 5716 5715 5716 5717 5718 5719 5719 5718 5718
5702 5699 5708 5711 5708 5703 5698 5692 5691 5698 5707 5703 5697 5700 5707 5710 5710 5712 5712 5712 5715 5718 5720 5722 5724 5724 5724 5723 5721 5720 5719 5718 5718 5717 5716 5715 5714 5713 5713 5714 5715 5715 5715 5714
5698 5705 5714 5708 5702 5697 5694 5691 5691 5691 5697 5699 5694 5692 5700 5707 5711 5713 5714 5714 5715 5717 5717 5719 5719 5720 5720 5719 5718 5718 5717 5716 5715 5715 5713 5712 5710 5709 5709 5709 5710 5711 5711 5711
5700 5708 5708 5702 5699 5696 5687 5699 5697 5692 5683 5676 5685 5670 5691 5698 5702 5708 5711 5712 5714 5716 5718 5717 5717 5717 5717 5718 5717 5716 5715 5714 5713 5712 5711 5709 5706 5703 5704 5705 5706 5707 5707 5707
5696 5704 5701 5697 5700 5700 5694 5701 5696 5690 5680 5671 5675 5668 5679 5692 5695 5703 5709 5712 5715 5716 5716 5716 5716 5717 5717 5717 5715 5714 5712 5711 5710 5710 5708 5706 5704 5703 5702 5702 5702 5702 5703 5703
5699 5707 5705 5703 5706 5704 5699 5691 5684 5675 5667 5659 5670 5665 5670 5684 5696 5704 5710 5713 5715 5716 5716 5716 5716 5716 5715 5714 5713 5711 5709 5708 5707 5707 5705 5704 5702 5700 5699 5698 5698 5697 5698 5698
5687 5696 5704 5707 5698 5696 5690 5671 5654 5651 5645 5651 5669 5665 5672 5696 5704 5707 5710 5713 5714 5715 5714 5713 5712 5712 5711 5711 5710 5709 5707 5705 5704 5703 5702 5702 5700 5699 5697 5696 5695 5694 5693 5693
5672 5672 5693 5700 5695 5687 5682 5672 5651 5642 5640 5647 5662 5661 5681 5703 5708 5710 5712 5713 5713 5713 5713 5712 5712 5711 5711 5710 5708 5707 5705 5703 5702 5701 5700 5699 5698 5696 5695 5694 5693 5692 5691 5691
5668 5671 5693 5699 5700 5691 5676 5668 5669 5652 5649 5644 5652 5666 5684 5702 5704 5706 5707 5708 5709 5710 5711 5711 5711 5710 5709 5708 5707 5706 5704 5702 5700 5698 5697 5696 5695 5694 5693 5692 5691 5690 5689 5688
5678 5670 5684 5692 5695 5690 5685 5672 5656 5648 5639 5636 5649 5657 5667 5688 5696 5701 5702 5703 5705 5707 5707 5708 5708 5707 5707 5707 5706 5705 5703 5701 5699 5697 5695 5694 5692 5691 5690 5689 5687 5687 5686 5685
5679 5667 5671 5678 5678 5676 5673 5667 5657 5645 5643 5635 5635 5653 5685 5689 5694 5695 5697 5700 5702 5702 5703 5704 5705 5705 5704 5703 5703 5701 5699 5698 5696 5694 5693 5691 5690 5688 5687 5685 5685 5684 5682 5681
5672 5660 5655 5666 5680 5684 5678 5670 5658 5647 5642 5637 5635 5653 5693 5692 5694 5695 5696 5698 5700 5700 5701 5702 5703 5701 5700 5699 5699 5698 5697 5695 5693 5692 5690 5688 5687 5685 5683 5682 5681 5680 5679 5677
5670 5656 5645 5651 5660 5671 5671 5669 5663 5652 5640 5632 5634 5656 5689 5690 5692 5693 5694 5695 5695 5697 5698 5698 5699 5698 5697 5697 5696 5695 5694 5693 5691 5689 5687 5684 5683 5681 5680 5679 5678 5676 5675 5673
5672 5654 5648 5645 5651 5660 5662 5665 5661 5652 5639 5636 5643 5659 5678 5684 5686 5689 5690 5691 5692 5693 5694 5694 5694 5694 5695 5694 5694 5693 5691 5690 5688 5686 5683 5681 5680 5679 5677 5676 5674 5673 5672 5670
5665 5652 5653 5656 5661 5662 5662 5663 5661 5656 5653 5647 5656 5660 5675 5681 5683 5686 5687 5688 5688 5688 5690 5690 5691 5690 5691 5690 5690 5690 5688 5687 5685 5683 5680 5679 5677 5676 5674 5672 5670 5669 5668 5667
5654 5648 5649 5651 5657 5657 5657 5662 5662 5660 5660 5657 5659 5664 5679 5681 5681 5681 5683 5683 5684 5686 5687 5687 5688 5688 5688 5688 5687 5686 5685 5684 5682 5680 5678 5676 5674 5672 5670 5668 5666 5665 5663 5661
5642 5641 5636 5635 5646 5649 5645 5660 5662 5663 5665 5662 5658 5667 5675 5675 5677 5678 5680 5681 5683 5684 5685 5684 5685 5686 5686 5686 5686 5684 5683 5682 5679 5677 5675 5673 5671 5668 5666 5665 5662 5660 5658 5656
5636 5631 5624 5625 5634 5628 5653 5669 5668 5664 5665 5666 5667 5670 5672 5675 5677 5680 5681 5680 5680 5682 5683 5683 5684 5684 5685 5685 5684 5683 5680 5678 5676 5674 5672 5670 5668 5665 5663 5660 5658 5656 5654 5652
5636 5629 5619 5616 5619 5630 5651 5663 5662 5658 5658 5666 5665 5667 5668 5671 5673 5675 5680 5680 5681 5681 5682 5682 5683 5682 5682 5682 5681 5679 5676 5674 5672 5671 5669 5667 5665 5662 5659 5656 5654 5652 5650 5648
5628 5626 5617 5612 5616 5621 5647 5662 5666 5659 5651 5664 5664 5662 5662 5663 5656 5666 5677 5678 5679 5680 5680 5681 5681 5680 5679 5679 5677 5674 5672 5670 5669 5669 5668 5666 5663 5660 5657 5654 5651 5649 5646 5644
5616 5613 5610 5608 5612 5625 5648 5658 5659 5641 5647 5662 5661 5660 5658 5657 5660 5668 5673 5674 5676 5677 5678 5678 5678 5677 5677 5676 5674 5671 5669 5668 5669 5667 5665 5663 5660 5658 5655 5651 5648 5645 5642 5639
5611 5607 5605 5604 5606 5621 5649 5649 5645 5647 5656 5658 5658 5659 5658 5659 5662 5665 5668 5670 5671 5673 5674 5674 5674 5673 5674 5673 5672 5669 5667 5668 5666 5663 5660 5658 5656 5654 5651 5647 5644 5641 5638 5634
5608 5612 5610 5613 5622 5637 5643 5646 5651 5651 5651 5654 5655 5657 5657 5656 5658 5660 5663 5664 5666 5668 5669 5669 5669 5669 5669 5669 5669 5666 5666 5665 5663 5660 5657 5654 5652 5650 5647 5644 5640 5637 5634 5631
5605 5610 5607 5610 5622 5631 5637 5641 5645 5647 5649 5652 5653 5654 5654 5653 5655 5656 5657 5658 5660 5662 5663 5664 5664 5664 5664 5665 5666 5665 5664 5662 5659 5656 5653 5650 5647 5645 5643 5640 5638 5634 5631 5628
5601 5602 5601 5605 5617 5624 5633 5636 5639 5642 5645 5648 5649 5651 5652 5652 5652 5653 5653 5654 5655 5656 5658 5658 5658 5659 5660 5661 5661 5662 5661 5658 5655 5652 5650 5647 5644 5642 5639 5637 5635 5633 5632 5630
5595 5598 5599 5604 5613 5614 5623 5631 5634 5636 5640 5643 5644 5646 5648 5649 5649 5649 5649 5650 5650 5651 5652 5652 5653 5655 5656 5656 5657 5657 5657 5655 5651 5648 5646 5644 5640 5637 5635 5631 5628 5628 5627 5625